Time,TemperatureF,DewpointF,PressureIn,WindDirection,WindDirectionDegrees,WindSpeedMPH,WindSpeedGustMPH,Humidity,HourlyPrecipIn,Conditions,Clouds,dailyrainin,SolarRadiationWatts/m^2,SoftwareType,DateUTC
2013-09-19 00:01:00,49.1,47.1,30.18,SW,219,0.0,0.0,93,0.00,,,0.00,0.0,meteohub,2013-09-19 04:01:00,
2013-09-19 00:02:00,49.1,46.9,30.18,SW,219,0.0,0.0,92,0.00,,,0.00,0.0,meteohub,2013-09-19 04:02:00,
2013-09-19 00:07:00,48.9,46.9,30.17,SW,219,0.0,0.0,93,0.00,,,0.00,0.0,meteohub,2013-09-19 04:07:00,
2013-09-19 00:09:00,48.9,46.9,30.18,SW,219,0.0,0.0,93,0.00,,,0.00,0.0,meteohub,2013-09-19 04:09:00,
2013-09-19 00:14:00,48.7,46.8,30.18,SW,219,0.0,2.0,93,0.00,,,0.00,0.0,meteohub,2013-09-19 04:14:00,
2013-09-19 00:19:00,48.7,46.8,30.18,SW,219,0.0,2.0,93,0.00,,,0.00,0.0,meteohub,2013-09-19 04:19:00,
2013-09-19 00:25:00,48.7,46.8,30.18,SW,219,0.0,2.0,93,0.00,,,0.00,0.0,meteohub,2013-09-19 04:25:00,
2013-09-19 00:30:00,48.7,46.8,30.17,SW,219,0.0,0.0,93,0.00,,,0.00,0.0,meteohub,2013-09-19 04:30:00,
2013-09-19 00:35:00,48.4,46.4,30.18,SW,219,0.0,0.0,93,0.00,,,0.00,0.0,meteohub,2013-09-19 04:35:00,
2013-09-19 00:40:00,48.4,46.4,30.17,SW,219,0.0,0.0,93,0.00,,,0.00,0.0,meteohub,2013-09-19 04:40:00,
2013-09-19 00:45:00,48.0,46.0,30.17,SW,219,0.0,0.0,93,0.00,,,0.00,0.0,meteohub,2013-09-19 04:45:00,
2013-09-19 00:50:00,48.0,46.0,30.17,SW,219,0.0,0.0,93,0.00,,,0.00,0.0,meteohub,2013-09-19 04:50:00,
2013-09-19 00:56:00,48.0,46.0,30.17,SW,219,0.0,0.0,93,0.00,,,0.00,0.0,meteohub,2013-09-19 04:56:00,
2013-09-19 01:01:00,48.0,46.0,30.17,SW,219,0.0,0.0,93,0.00,,,0.00,0.0,meteohub,2013-09-19 05:01:00,
2013-09-19 01:06:00,48.0,46.0,30.17,SW,219,0.0,0.0,93,0.00,,,0.00,0.0,meteohub,2013-09-19 05:06:00,
2013-09-19 01:11:00,47.8,45.9,30.17,SW,219,0.0,0.0,93,0.00,,,0.00,0.0,meteohub,2013-09-19 05:11:00,
2013-09-19 01:16:00,47.8,45.9,30.17,SW,219,0.0,0.0,93,0.00,,,0.00,0.0,meteohub,2013-09-19 05:16:00,
2013-09-19 01:21:00,47.7,45.7,30.17,SW,219,0.0,0.0,93,0.00,,,0.00,0.0,meteohub,2013-09-19 05:21:00,
2013-09-19 01:27:00,47.7,45.7,30.17,SW,219,0.0,0.0,93,0.00,,,0.00,0.0,meteohub,2013-09-19 05:27:00,
2013-09-19 01:32:00,47.7,45.7,30.17,SW,219,0.0,0.0,93,0.00,,,0.00,0.0,meteohub,2013-09-19 05:32:00,
2013-09-19 01:37:00,47.5,45.5,30.17,SW,219,0.0,2.0,93,0.00,,,0.00,0.0,meteohub,2013-09-19 05:37:00,
2013-09-19 01:42:00,47.3,45.3,30.17,SW,219,0.0,2.0,93,0.00,,,0.00,0.0,meteohub,2013-09-19 05:42:00,
2013-09-19 01:47:00,47.1,45.1,30.17,SW,219,0.0,2.0,93,0.00,,,0.00,0.0,meteohub,2013-09-19 05:47:00,
2013-09-19 01:52:00,47.1,45.5,30.17,SW,219,0.0,0.0,94,0.00,,,0.00,0.0,meteohub,2013-09-19 05:52:00,
2013-09-19 01:57:00,47.1,45.5,30.17,SW,219,0.0,0.0,94,0.00,,,0.00,0.0,meteohub,2013-09-19 05:57:00,
2013-09-19 02:02:00,46.9,45.3,30.16,SW,219,0.0,0.0,94,0.00,,,0.00,0.0,meteohub,2013-09-19 06:02:00,
2013-09-19 02:07:00,46.9,45.3,30.16,SW,219,0.0,0.0,94,0.00,,,0.00,0.0,meteohub,2013-09-19 06:07:00,
2013-09-19 02:12:00,47.1,45.5,30.16,SW,219,0.0,0.0,94,0.00,,,0.00,0.0,meteohub,2013-09-19 06:12:00,
2013-09-19 02:17:00,47.1,45.5,30.16,SW,219,0.0,0.0,94,0.00,,,0.00,0.0,meteohub,2013-09-19 06:17:00,
2013-09-19 02:22:00,47.1,45.5,30.16,SW,219,0.0,2.0,94,0.00,,,0.00,0.0,meteohub,2013-09-19 06:22:00,
2013-09-19 02:27:00,46.9,45.3,30.16,SW,220,0.0,3.0,94,0.00,,,0.00,0.0,meteohub,2013-09-19 06:27:00,
2013-09-19 02:32:00,46.9,45.3,30.16,SW,219,0.0,3.0,94,0.00,,,0.00,0.0,meteohub,2013-09-19 06:32:00,
2013-09-19 02:37:00,46.9,45.3,30.15,SW,219,0.0,2.0,94,0.00,,,0.00,0.0,meteohub,2013-09-19 06:37:00,
2013-09-19 02:42:00,46.8,45.1,30.15,SW,219,0.0,0.0,94,0.00,,,0.00,0.0,meteohub,2013-09-19 06:42:00,
2013-09-19 02:47:00,46.8,45.1,30.15,SW,220,0.0,0.0,94,0.00,,,0.00,0.0,meteohub,2013-09-19 06:47:00,
2013-09-19 02:52:00,46.8,45.1,30.15,SW,219,0.0,0.0,94,0.00,,,0.00,0.0,meteohub,2013-09-19 06:52:00,
2013-09-19 02:57:00,46.6,45.0,30.15,SW,219,0.0,0.0,94,0.00,,,0.00,0.0,meteohub,2013-09-19 06:57:00,
2013-09-19 03:02:00,46.4,44.8,30.15,SW,220,0.0,0.0,94,0.00,,,0.00,0.0,meteohub,2013-09-19 07:02:00,
2013-09-19 03:07:00,46.4,44.8,30.15,SW,219,0.0,0.0,94,0.00,,,0.00,0.0,meteohub,2013-09-19 07:07:00,
2013-09-19 03:12:00,46.6,45.0,30.15,SW,220,0.0,0.0,94,0.00,,,0.00,0.0,meteohub,2013-09-19 07:12:00,
2013-09-19 03:17:00,46.2,44.2,30.15,SW,219,0.0,0.0,93,0.00,,,0.00,0.0,meteohub,2013-09-19 07:17:00,
2013-09-19 03:22:00,46.0,44.4,30.15,SW,220,0.0,0.0,94,0.00,,,0.00,0.0,meteohub,2013-09-19 07:22:00,
2013-09-19 03:27:00,46.0,44.4,30.15,SW,219,0.0,0.0,94,0.00,,,0.00,0.0,meteohub,2013-09-19 07:27:00,
2013-09-19 03:32:00,45.9,44.2,30.15,SW,220,1.0,0.0,94,0.00,,,0.00,0.0,meteohub,2013-09-19 07:32:00,
2013-09-19 03:37:00,46.0,44.4,30.15,SW,219,0.0,1.0,94,0.00,,,0.00,0.0,meteohub,2013-09-19 07:37:00,
2013-09-19 03:42:00,46.0,44.4,30.14,SW,220,0.0,1.0,94,0.00,,,0.00,0.0,meteohub,2013-09-19 07:42:00,
2013-09-19 03:47:00,46.2,44.6,30.14,SW,220,0.0,1.0,94,0.00,,,0.00,0.0,meteohub,2013-09-19 07:47:00,
2013-09-19 03:52:00,45.9,44.2,30.14,SW,219,0.0,0.0,94,0.00,,,0.00,0.0,meteohub,2013-09-19 07:52:00,
2013-09-19 03:57:00,45.7,44.1,30.14,SW,219,0.0,0.0,94,0.00,,,0.00,0.0,meteohub,2013-09-19 07:57:00,
2013-09-19 04:02:00,45.7,44.1,30.14,SW,220,0.0,0.0,94,0.00,,,0.00,0.0,meteohub,2013-09-19 08:02:00,
2013-09-19 04:07:00,45.7,44.1,30.14,SW,219,0.0,0.0,94,0.00,,,0.00,0.0,meteohub,2013-09-19 08:07:00,
2013-09-19 04:12:00,45.5,43.9,30.14,SW,220,0.0,0.0,94,0.00,,,0.00,0.0,meteohub,2013-09-19 08:12:00,
2013-09-19 04:17:00,45.3,43.7,30.14,SW,219,0.0,0.0,94,0.00,,,0.00,0.0,meteohub,2013-09-19 08:17:00,
2013-09-19 04:22:00,45.1,43.5,30.14,SW,219,0.0,0.0,94,0.00,,,0.00,0.0,meteohub,2013-09-19 08:22:00,
2013-09-19 04:27:00,45.3,43.7,30.14,SW,219,0.0,0.0,94,0.00,,,0.00,0.0,meteohub,2013-09-19 08:27:00,
2013-09-19 04:32:00,45.7,44.1,30.14,SW,220,0.0,0.0,94,0.00,,,0.00,0.0,meteohub,2013-09-19 08:32:00,
2013-09-19 04:37:00,45.3,43.7,30.14,SW,219,0.0,0.0,94,0.00,,,0.00,0.0,meteohub,2013-09-19 08:37:00,
2013-09-19 04:42:00,45.3,43.7,30.14,SW,220,0.0,0.0,94,0.00,,,0.00,0.0,meteohub,2013-09-19 08:42:00,
2013-09-19 04:47:00,45.1,43.5,30.14,SW,219,0.0,0.0,94,0.00,,,0.00,0.0,meteohub,2013-09-19 08:47:00,
2013-09-19 04:52:00,45.1,43.5,30.14,SW,219,0.0,0.0,94,0.00,,,0.00,0.0,meteohub,2013-09-19 08:52:00,
2013-09-19 04:57:00,45.3,43.7,30.14,SW,219,0.0,0.0,94,0.00,,,0.00,0.0,meteohub,2013-09-19 08:57:00,
2013-09-19 05:02:00,45.3,43.7,30.14,SW,219,0.0,0.0,94,0.00,,,0.00,0.0,meteohub,2013-09-19 09:02:00,
2013-09-19 05:07:00,45.5,43.9,30.14,SW,219,0.0,0.0,94,0.00,,,0.00,0.0,meteohub,2013-09-19 09:07:00,
2013-09-19 05:12:00,45.1,43.5,30.14,SW,220,0.0,0.0,94,0.00,,,0.00,0.0,meteohub,2013-09-19 09:12:00,
2013-09-19 05:17:00,44.8,43.2,30.14,SW,220,0.0,0.0,94,0.00,,,0.00,0.0,meteohub,2013-09-19 09:17:00,
2013-09-19 05:22:00,45.0,43.3,30.14,SW,219,0.0,0.0,94,0.00,,,0.00,0.0,meteohub,2013-09-19 09:22:00,
2013-09-19 05:27:00,45.1,43.5,30.14,SW,219,0.0,0.0,94,0.00,,,0.00,0.0,meteohub,2013-09-19 09:27:00,
2013-09-19 05:32:00,45.0,43.0,30.14,SW,219,0.0,0.0,93,0.00,,,0.00,0.0,meteohub,2013-09-19 09:32:00,
2013-09-19 05:37:00,44.4,42.8,30.14,SW,219,0.0,0.0,94,0.00,,,0.00,0.0,meteohub,2013-09-19 09:37:00,
2013-09-19 05:42:00,44.8,43.2,30.14,SW,219,0.0,0.0,94,0.00,,,0.00,0.0,meteohub,2013-09-19 09:42:00,
2013-09-19 05:47:00,44.4,42.8,30.14,SW,220,0.0,0.0,94,0.00,,,0.00,0.0,meteohub,2013-09-19 09:47:00,
2013-09-19 05:52:00,44.6,43.0,30.14,SW,219,0.0,0.0,94,0.00,,,0.00,0.0,meteohub,2013-09-19 09:52:00,
2013-09-19 05:57:00,44.2,42.6,30.14,SW,219,0.0,0.0,94,0.00,,,0.00,0.0,meteohub,2013-09-19 09:57:00,
2013-09-19 06:02:00,44.1,42.4,30.14,SW,219,0.0,0.0,94,0.00,,,0.00,0.0,meteohub,2013-09-19 10:02:00,
2013-09-19 06:07:00,44.2,42.6,30.15,SW,219,0.0,0.0,94,0.00,,,0.00,0.0,meteohub,2013-09-19 10:07:00,
2013-09-19 06:12:00,44.2,42.6,30.15,SW,219,0.0,0.0,94,0.00,,,0.00,0.0,meteohub,2013-09-19 10:12:00,
2013-09-19 06:17:00,44.8,43.5,30.15,SW,220,0.0,0.0,95,0.00,,,0.00,0.0,meteohub,2013-09-19 10:17:00,
2013-09-19 06:22:00,44.6,43.0,30.15,SW,219,0.0,0.0,94,0.00,,,0.00,0.0,meteohub,2013-09-19 10:22:00,
2013-09-19 06:27:00,44.6,43.0,30.15,SW,220,0.0,0.0,94,0.00,,,0.00,0.0,meteohub,2013-09-19 10:27:00,
2013-09-19 06:32:00,44.2,42.6,30.15,SW,219,0.0,0.0,94,0.00,,,0.00,0.0,meteohub,2013-09-19 10:32:00,
2013-09-19 06:37:00,44.1,42.4,30.15,SW,219,2.0,0.0,94,0.00,,,0.00,0.0,meteohub,2013-09-19 10:37:00,
2013-09-19 06:42:00,43.9,42.3,30.16,SW,219,2.0,2.0,94,0.00,,,0.00,7.0,meteohub,2013-09-19 10:42:00,
2013-09-19 06:47:00,44.1,42.4,30.15,SW,219,0.0,2.0,94,0.00,,,0.00,9.0,meteohub,2013-09-19 10:47:00,
2013-09-19 06:52:00,43.9,42.3,30.15,SW,219,0.0,2.0,94,0.00,,,0.00,11.0,meteohub,2013-09-19 10:52:00,
2013-09-19 06:57:00,44.1,42.4,30.15,SW,220,0.0,2.0,94,0.00,,,0.00,14.0,meteohub,2013-09-19 10:57:00,
2013-09-19 07:03:00,44.4,43.2,30.16,SW,220,0.0,1.0,95,0.00,,,0.00,16.0,meteohub,2013-09-19 11:03:00,
2013-09-19 07:08:00,44.4,42.8,30.16,SW,220,0.0,0.0,94,0.00,,,0.00,21.0,meteohub,2013-09-19 11:08:00,
2013-09-19 07:13:00,44.4,43.2,30.15,SW,220,0.0,0.0,95,0.00,,,0.00,51.0,meteohub,2013-09-19 11:13:00,
2013-09-19 07:18:00,44.6,43.3,30.16,SW,220,0.0,0.0,95,0.00,,,0.00,60.0,meteohub,2013-09-19 11:18:00,
2013-09-19 07:23:00,45.0,43.7,30.16,SW,220,2.0,0.0,95,0.00,,,0.00,74.0,meteohub,2013-09-19 11:23:00,
2013-09-19 07:28:00,45.7,44.4,30.16,SW,220,0.0,2.0,95,0.00,,,0.00,86.0,meteohub,2013-09-19 11:28:00,
2013-09-19 07:33:00,46.2,44.8,30.16,SW,220,0.0,2.0,95,0.00,,,0.00,102.0,meteohub,2013-09-19 11:33:00,
2013-09-19 07:38:00,46.9,45.5,30.16,SW,220,0.0,2.0,95,0.00,,,0.00,120.0,meteohub,2013-09-19 11:38:00,
2013-09-19 07:43:00,47.8,46.4,30.16,SW,220,0.0,2.0,95,0.00,,,0.00,134.0,meteohub,2013-09-19 11:43:00,
2013-09-19 07:49:00,48.6,47.1,30.16,SW,220,0.0,0.0,95,0.00,,,0.00,148.0,meteohub,2013-09-19 11:49:00,
2013-09-19 07:54:00,49.3,47.8,30.16,SW,220,0.0,0.0,95,0.00,,,0.00,165.0,meteohub,2013-09-19 11:54:00,
2013-09-19 07:59:00,50.0,48.6,30.16,SW,220,0.0,0.0,95,0.00,,,0.00,181.0,meteohub,2013-09-19 11:59:00,
2013-09-19 08:04:00,50.9,49.5,30.16,SW,220,0.0,0.0,95,0.00,,,0.00,195.0,meteohub,2013-09-19 12:04:00,
2013-09-19 08:09:00,51.6,50.0,30.16,SW,220,0.0,0.0,94,0.00,,,0.00,207.0,meteohub,2013-09-19 12:09:00,
2013-09-19 08:14:00,52.9,51.3,30.16,SW,220,0.0,0.0,94,0.00,,,0.00,221.0,meteohub,2013-09-19 12:14:00,
2013-09-19 08:19:00,54.0,52.0,30.15,SW,220,0.0,0.0,93,0.00,,,0.00,236.0,meteohub,2013-09-19 12:19:00,
2013-09-19 08:25:00,55.0,52.7,30.15,SW,220,0.0,0.0,92,0.00,,,0.00,248.0,meteohub,2013-09-19 12:25:00,
2013-09-19 08:30:00,56.1,53.6,30.15,South,171,0.0,1.0,91,0.00,,,0.00,260.0,meteohub,2013-09-19 12:30:00,
2013-09-19 08:35:00,57.4,54.1,30.15,South,171,0.0,1.0,89,0.00,,,0.00,274.0,meteohub,2013-09-19 12:35:00,
2013-09-19 08:40:00,57.9,53.4,30.15,South,171,1.0,1.0,85,0.00,,,0.00,288.0,meteohub,2013-09-19 12:40:00,
2013-09-19 08:45:00,58.5,53.2,30.15,West,265,3.0,4.0,83,0.00,,,0.00,302.0,meteohub,2013-09-19 12:45:00,
2013-09-19 08:50:00,59.2,53.4,30.15,SW,233,4.0,5.0,81,0.00,,,0.00,315.0,meteohub,2013-09-19 12:50:00,
2013-09-19 08:55:00,59.4,52.9,30.15,West,271,0.0,5.0,79,0.00,,,0.00,330.0,meteohub,2013-09-19 12:55:00,
2013-09-19 09:00:00,59.9,53.1,30.15,West,263,3.0,5.0,78,0.00,,,0.00,341.0,meteohub,2013-09-19 13:00:00,
2013-09-19 09:05:00,60.8,53.6,30.15,WSW,250,1.0,5.0,77,0.00,,,0.00,369.0,meteohub,2013-09-19 13:05:00,
2013-09-19 09:11:00,60.8,53.6,30.15,WSW,250,1.0,4.0,77,0.00,,,0.00,387.0,meteohub,2013-09-19 13:11:00,
2013-09-19 09:16:00,61.9,53.8,30.15,West,271,0.0,5.0,75,0.00,,,0.00,408.0,meteohub,2013-09-19 13:16:00,
2013-09-19 09:21:00,62.1,53.6,30.15,West,261,0.0,5.0,74,0.00,,,0.00,418.0,meteohub,2013-09-19 13:21:00,
2013-09-19 09:26:00,62.2,53.8,30.15,West,259,0.0,5.0,74,0.00,,,0.00,436.0,meteohub,2013-09-19 13:26:00,
2013-09-19 09:31:00,62.4,54.0,30.15,WSW,254,0.0,3.0,74,0.00,,,0.00,454.0,meteohub,2013-09-19 13:31:00,
2013-09-19 09:36:00,62.8,54.3,30.15,SW,232,4.0,4.0,74,0.00,,,0.00,471.0,meteohub,2013-09-19 13:36:00,
2013-09-19 09:41:00,63.0,54.1,30.15,SW,225,0.0,4.0,73,0.00,,,0.00,483.0,meteohub,2013-09-19 13:41:00,
2013-09-19 09:46:00,63.1,54.3,30.15,SW,222,0.0,4.0,73,0.00,,,0.00,497.0,meteohub,2013-09-19 13:46:00,
2013-09-19 09:51:00,63.7,54.5,30.15,West,268,3.0,4.0,72,0.00,,,0.00,508.0,meteohub,2013-09-19 13:51:00,
2013-09-19 09:56:00,64.8,55.6,30.15,West,263,1.0,5.0,72,0.00,,,0.00,524.0,meteohub,2013-09-19 13:56:00,
2013-09-19 10:02:00,65.1,54.7,30.15,West,271,0.0,5.0,69,0.00,,,0.00,533.0,meteohub,2013-09-19 14:02:00,
2013-09-19 10:07:00,65.8,55.4,30.15,SW,231,0.0,5.0,69,0.00,,,0.00,545.0,meteohub,2013-09-19 14:07:00,
2013-09-19 10:12:00,66.0,55.2,30.15,SW,230,2.0,4.0,68,0.00,,,0.00,557.0,meteohub,2013-09-19 14:12:00,
2013-09-19 10:17:00,66.6,55.2,30.14,WSW,246,2.0,4.0,67,0.00,,,0.00,570.0,meteohub,2013-09-19 14:17:00,
2013-09-19 10:22:00,68.2,55.9,30.14,WNW,290,2.0,6.0,65,0.00,,,0.00,578.0,meteohub,2013-09-19 14:22:00,
2013-09-19 10:27:00,69.4,56.3,30.15,WNW,297,1.0,6.0,63,0.00,,,0.00,589.0,meteohub,2013-09-19 14:27:00,
2013-09-19 10:32:00,69.3,56.1,30.15,WNW,285,0.0,6.0,63,0.00,,,0.00,601.0,meteohub,2013-09-19 14:32:00,
2013-09-19 10:37:00,68.7,55.2,30.15,SSE,165,0.0,6.0,62,0.00,,,0.00,606.0,meteohub,2013-09-19 14:37:00,
2013-09-19 10:42:00,68.4,55.2,30.14,WSW,238,0.0,5.0,63,0.00,,,0.00,619.0,meteohub,2013-09-19 14:42:00,
2013-09-19 10:47:00,68.5,55.9,30.14,South,171,4.0,6.0,64,0.00,,,0.00,629.0,meteohub,2013-09-19 14:47:00,
2013-09-19 10:52:00,67.8,55.2,30.14,SW,228,2.0,6.0,64,0.00,,,0.00,638.0,meteohub,2013-09-19 14:52:00,
2013-09-19 10:57:00,68.5,55.4,30.14,SSW,209,0.0,5.0,63,0.00,,,0.00,645.0,meteohub,2013-09-19 14:57:00,
2013-09-19 11:02:00,69.6,55.9,30.14,South,187,0.0,5.0,62,0.00,,,0.00,654.0,meteohub,2013-09-19 15:02:00,
2013-09-19 11:07:00,68.7,57.4,30.13,South,177,1.0,6.0,67,0.00,,,0.00,663.0,meteohub,2013-09-19 15:07:00,
2013-09-19 11:12:00,69.6,58.1,30.13,SSW,213,2.0,6.0,67,0.00,,,0.00,668.0,meteohub,2013-09-19 15:12:00,
2013-09-19 11:17:00,68.2,57.6,30.13,SSW,194,3.0,8.0,69,0.00,,,0.00,677.0,meteohub,2013-09-19 15:17:00,
2013-09-19 11:22:00,68.0,57.0,30.13,South,171,0.0,8.0,68,0.00,,,0.00,680.0,meteohub,2013-09-19 15:22:00,
2013-09-19 11:27:00,68.5,57.2,30.13,South,182,2.0,8.0,67,0.00,,,0.00,689.0,meteohub,2013-09-19 15:27:00,
2013-09-19 11:32:00,68.9,57.0,30.13,SSW,205,6.0,8.0,66,0.00,,,0.00,693.0,meteohub,2013-09-19 15:32:00,
2013-09-19 11:37:00,70.0,57.7,30.13,SSW,200,2.0,8.0,65,0.00,,,0.00,701.0,meteohub,2013-09-19 15:37:00,
2013-09-19 11:42:00,70.2,57.4,30.13,WSW,239,5.0,8.0,64,0.00,,,0.00,705.0,meteohub,2013-09-19 15:42:00,
2013-09-19 11:47:00,70.2,57.9,30.13,South,190,0.0,8.0,65,0.00,,,0.00,708.0,meteohub,2013-09-19 15:47:00,
2013-09-19 11:52:00,69.4,57.9,30.13,South,171,6.0,7.0,67,0.00,,,0.00,712.0,meteohub,2013-09-19 15:52:00,
2013-09-19 11:57:00,68.7,57.4,30.13,South,178,5.0,9.0,67,0.00,,,0.00,714.0,meteohub,2013-09-19 15:57:00,
2013-09-19 12:02:00,68.5,57.2,30.13,SSW,196,6.0,11.0,67,0.00,,,0.00,721.0,meteohub,2013-09-19 16:02:00,
2013-09-19 12:07:00,68.4,57.0,30.13,South,175,5.0,12.0,67,0.00,,,0.00,724.0,meteohub,2013-09-19 16:07:00,
2013-09-19 12:12:00,68.5,57.2,30.13,South,191,4.0,12.0,67,0.00,,,0.00,728.0,meteohub,2013-09-19 16:12:00,
2013-09-19 12:17:00,69.4,57.6,30.12,SSW,210,0.0,11.0,66,0.00,,,0.00,729.0,meteohub,2013-09-19 16:17:00,
2013-09-19 12:22:00,70.0,57.7,30.12,SSW,199,5.0,11.0,65,0.00,,,0.00,731.0,meteohub,2013-09-19 16:22:00,
2013-09-19 12:27:00,70.2,57.4,30.12,South,173,4.0,9.0,64,0.00,,,0.00,735.0,meteohub,2013-09-19 16:27:00,
2013-09-19 12:32:00,69.8,57.6,30.12,SSE,167,7.0,10.0,65,0.00,,,0.00,735.0,meteohub,2013-09-19 16:32:00,
2013-09-19 12:37:00,70.0,57.7,30.12,South,184,3.0,14.0,65,0.00,,,0.00,737.0,meteohub,2013-09-19 16:37:00,
2013-09-19 12:42:00,70.2,57.0,30.12,SSW,192,2.0,14.0,63,0.00,,,0.00,738.0,meteohub,2013-09-19 16:42:00,
2013-09-19 12:47:00,70.3,57.2,30.12,South,186,11.0,14.0,63,0.00,,,0.00,738.0,meteohub,2013-09-19 16:47:00,
2013-09-19 12:52:00,70.2,56.5,30.12,SSE,157,4.0,12.0,62,0.00,,,0.00,740.0,meteohub,2013-09-19 16:52:00,
2013-09-19 12:57:00,70.5,56.5,30.12,SE,145,4.0,12.0,61,0.00,,,0.00,740.0,meteohub,2013-09-19 16:57:00,
2013-09-19 13:02:00,71.1,56.5,30.12,South,173,4.0,12.0,60,0.00,,,0.00,738.0,meteohub,2013-09-19 17:02:00,
2013-09-19 13:07:00,70.5,55.0,30.11,SSW,196,2.0,8.0,58,0.00,,,0.00,737.0,meteohub,2013-09-19 17:07:00,
2013-09-19 13:12:00,70.9,55.4,30.12,WSW,238,3.0,13.0,58,0.00,,,0.00,735.0,meteohub,2013-09-19 17:12:00,
2013-09-19 13:17:00,71.1,54.5,30.11,WSW,249,7.0,13.0,56,0.00,,,0.00,731.0,meteohub,2013-09-19 17:17:00,
2013-09-19 13:22:00,71.2,54.7,30.11,South,177,5.0,13.0,56,0.00,,,0.00,729.0,meteohub,2013-09-19 17:22:00,
2013-09-19 13:27:00,71.6,53.6,30.11,SSW,205,4.0,11.0,53,0.00,,,0.00,724.0,meteohub,2013-09-19 17:27:00,
2013-09-19 13:33:00,72.1,53.6,30.11,WSW,248,8.0,11.0,52,0.00,,,0.00,722.0,meteohub,2013-09-19 17:33:00,
2013-09-19 13:38:00,72.5,53.4,30.11,SSW,198,5.0,12.0,51,0.00,,,0.00,721.0,meteohub,2013-09-19 17:38:00,
2013-09-19 13:43:00,71.4,54.0,30.11,South,179,4.0,12.0,54,0.00,,,0.00,715.0,meteohub,2013-09-19 17:43:00,
2013-09-19 13:48:00,72.0,54.9,30.10,SW,217,10.0,12.0,55,0.00,,,0.00,710.0,meteohub,2013-09-19 17:48:00,
2013-09-19 13:53:00,71.8,54.3,30.10,SW,220,5.0,10.0,54,0.00,,,0.00,705.0,meteohub,2013-09-19 17:53:00,
2013-09-19 13:58:00,72.1,55.6,30.10,SW,232,4.0,12.0,56,0.00,,,0.00,700.0,meteohub,2013-09-19 17:58:00,
2013-09-19 14:03:00,72.7,54.5,30.10,South,173,5.0,12.0,53,0.00,,,0.00,693.0,meteohub,2013-09-19 18:03:00,
2013-09-19 14:08:00,71.8,54.7,30.10,South,187,3.0,13.0,55,0.00,,,0.00,684.0,meteohub,2013-09-19 18:08:00,
2013-09-19 14:14:00,71.4,55.4,30.10,SSW,202,6.0,14.0,57,0.00,,,0.00,679.0,meteohub,2013-09-19 18:14:00,
2013-09-19 14:19:00,72.0,55.9,30.10,SSW,213,8.0,14.0,57,0.00,,,0.00,673.0,meteohub,2013-09-19 18:19:00,
2013-09-19 14:24:00,72.0,55.4,30.10,SSW,200,6.0,12.0,56,0.00,,,0.00,668.0,meteohub,2013-09-19 18:24:00,
2013-09-19 14:29:00,72.1,54.5,30.09,SSW,205,5.0,12.0,54,0.00,,,0.00,659.0,meteohub,2013-09-19 18:29:00,
2013-09-19 14:34:00,72.3,53.8,30.09,West,273,5.0,10.0,52,0.00,,,0.00,654.0,meteohub,2013-09-19 18:34:00,
2013-09-19 14:39:00,72.9,54.7,30.09,SSW,211,4.0,11.0,53,0.00,,,0.00,643.0,meteohub,2013-09-19 18:39:00,
2013-09-19 14:44:00,72.9,54.1,30.09,SW,222,6.0,11.0,52,0.00,,,0.00,636.0,meteohub,2013-09-19 18:44:00,
2013-09-19 14:49:00,72.9,54.7,30.09,SSE,161,5.0,11.0,53,0.00,,,0.00,626.0,meteohub,2013-09-19 18:49:00,
2013-09-19 14:55:00,73.6,54.9,30.09,SW,230,3.0,11.0,52,0.00,,,0.00,617.0,meteohub,2013-09-19 18:55:00,
2013-09-19 15:00:00,74.1,54.9,30.09,SSE,152,4.0,11.0,51,0.00,,,0.00,608.0,meteohub,2013-09-19 19:00:00,
2013-09-19 15:05:00,73.2,52.3,30.09,SSW,200,1.0,10.0,48,0.00,,,0.00,594.0,meteohub,2013-09-19 19:05:00,
2013-09-19 15:10:00,73.8,53.4,30.09,SSW,192,8.0,11.0,49,0.00,,,0.00,585.0,meteohub,2013-09-19 19:10:00,
2013-09-19 15:15:00,73.8,51.1,30.09,South,186,3.0,11.0,45,0.00,,,0.00,577.0,meteohub,2013-09-19 19:15:00,
2013-09-19 15:20:00,73.8,50.5,30.09,South,185,5.0,9.0,44,0.00,,,0.00,566.0,meteohub,2013-09-19 19:20:00,
2013-09-19 15:25:00,73.4,48.9,30.08,South,172,2.0,9.0,42,0.00,,,0.00,559.0,meteohub,2013-09-19 19:25:00,
2013-09-19 15:30:00,73.6,49.1,30.08,South,171,5.0,10.0,42,0.00,,,0.00,543.0,meteohub,2013-09-19 19:30:00,
2013-09-19 15:36:00,73.0,49.3,30.07,South,178,4.0,11.0,43,0.00,,,0.00,534.0,meteohub,2013-09-19 19:36:00,
2013-09-19 15:41:00,73.2,50.5,30.07,WSW,246,0.0,11.0,45,0.00,,,0.00,522.0,meteohub,2013-09-19 19:41:00,
2013-09-19 15:46:00,73.6,50.4,30.07,South,184,4.0,11.0,44,0.00,,,0.00,510.0,meteohub,2013-09-19 19:46:00,
2013-09-19 15:51:00,73.2,48.0,30.07,South,190,8.0,11.0,41,0.00,,,0.00,496.0,meteohub,2013-09-19 19:51:00,
2013-09-19 15:56:00,73.0,48.0,30.07,SSE,154,7.0,11.0,41,0.00,,,0.00,483.0,meteohub,2013-09-19 19:56:00,
2013-09-19 16:01:00,73.9,48.7,30.07,SSE,163,2.0,10.0,41,0.00,,,0.00,469.0,meteohub,2013-09-19 20:01:00,
2013-09-19 16:06:00,73.9,48.7,30.07,South,171,4.0,10.0,41,0.00,,,0.00,455.0,meteohub,2013-09-19 20:06:00,
2013-09-19 16:11:00,73.9,50.0,30.07,South,188,4.0,8.0,43,0.00,,,0.00,443.0,meteohub,2013-09-19 20:11:00,
2013-09-19 16:16:00,74.7,52.0,30.07,SW,223,4.0,8.0,45,0.00,,,0.00,427.0,meteohub,2013-09-19 20:16:00,
2013-09-19 16:22:00,74.1,52.5,30.07,SW,221,0.0,8.0,47,0.00,,,0.00,411.0,meteohub,2013-09-19 20:22:00,
2013-09-19 16:27:00,73.9,53.1,30.07,WSW,238,4.0,8.0,48,0.00,,,0.00,397.0,meteohub,2013-09-19 20:27:00,
2013-09-19 16:32:00,74.1,53.8,30.07,SW,232,1.0,8.0,49,0.00,,,0.00,383.0,meteohub,2013-09-19 20:32:00,
2013-09-19 16:37:00,74.8,53.8,30.07,South,169,0.0,7.0,48,0.00,,,0.00,369.0,meteohub,2013-09-19 20:37:00,
2013-09-19 16:42:00,74.5,51.8,30.07,South,177,0.0,6.0,45,0.00,,,0.00,353.0,meteohub,2013-09-19 20:42:00,
2013-09-19 16:47:00,74.3,50.9,30.06,South,180,0.0,5.0,44,0.00,,,0.00,341.0,meteohub,2013-09-19 20:47:00,
2013-09-19 16:52:00,74.3,52.2,30.06,SSW,194,1.0,6.0,46,0.00,,,0.00,327.0,meteohub,2013-09-19 20:52:00,
2013-09-19 16:57:00,74.1,52.5,30.06,SW,217,3.0,6.0,47,0.00,,,0.00,315.0,meteohub,2013-09-19 20:57:00,
2013-09-19 17:02:00,73.9,52.5,30.06,SW,215,0.0,6.0,47,0.00,,,0.00,299.0,meteohub,2013-09-19 21:02:00,
2013-09-19 17:07:00,74.1,53.2,30.06,South,183,3.0,6.0,48,0.00,,,0.00,283.0,meteohub,2013-09-19 21:07:00,
2013-09-19 17:12:00,73.8,53.4,30.06,SSE,153,1.0,6.0,49,0.00,,,0.00,269.0,meteohub,2013-09-19 21:12:00,
2013-09-19 17:17:00,73.2,54.0,30.06,South,171,4.0,6.0,51,0.00,,,0.00,253.0,meteohub,2013-09-19 21:17:00,
2013-09-19 17:22:00,72.3,54.7,30.06,WSW,238,0.0,8.0,54,0.00,,,0.00,239.0,meteohub,2013-09-19 21:22:00,
2013-09-19 17:27:00,72.1,55.6,30.06,SSW,211,0.0,8.0,56,0.00,,,0.00,223.0,meteohub,2013-09-19 21:27:00,
2013-09-19 17:32:00,72.0,55.9,30.06,South,188,0.0,8.0,57,0.00,,,0.00,206.0,meteohub,2013-09-19 21:32:00,
2013-09-19 17:37:00,72.1,55.6,30.06,SSW,193,0.0,6.0,56,0.00,,,0.00,185.0,meteohub,2013-09-19 21:37:00,
2013-09-19 17:42:00,72.0,55.4,30.06,SSW,194,0.0,6.0,56,0.00,,,0.00,165.0,meteohub,2013-09-19 21:42:00,
2013-09-19 17:47:00,72.0,55.4,30.06,SSW,194,1.0,6.0,56,0.00,,,0.00,148.0,meteohub,2013-09-19 21:47:00,
2013-09-19 17:52:00,72.0,55.9,30.06,SSW,192,0.0,3.0,57,0.00,,,0.00,128.0,meteohub,2013-09-19 21:52:00,
2013-09-19 17:57:00,71.4,55.9,30.06,SSW,192,0.0,1.0,58,0.00,,,0.00,109.0,meteohub,2013-09-19 21:57:00,
2013-09-19 18:02:00,71.2,56.1,30.06,SSW,192,0.0,2.0,59,0.00,,,0.00,95.0,meteohub,2013-09-19 22:02:00,
2013-09-19 18:07:00,70.9,56.3,30.06,SSW,192,0.0,2.0,60,0.00,,,0.00,72.0,meteohub,2013-09-19 22:07:00,
2013-09-19 18:12:00,70.3,57.2,30.06,SSW,192,0.0,2.0,63,0.00,,,0.00,23.0,meteohub,2013-09-19 22:12:00,
2013-09-19 18:17:00,69.6,57.4,30.06,SSW,192,0.0,0.0,65,0.00,,,0.00,18.0,meteohub,2013-09-19 22:17:00,
2013-09-19 18:22:00,68.9,57.6,30.06,SSW,192,0.0,0.0,67,0.00,,,0.00,16.0,meteohub,2013-09-19 22:22:00,
2013-09-19 18:27:00,67.8,57.7,30.06,SSW,192,0.0,0.0,70,0.00,,,0.00,14.0,meteohub,2013-09-19 22:27:00,
2013-09-19 18:32:00,67.3,57.2,30.06,SSW,192,0.0,1.0,70,0.00,,,0.00,12.0,meteohub,2013-09-19 22:32:00,
2013-09-19 18:37:00,66.9,57.2,30.06,SSW,192,0.0,1.0,71,0.00,,,0.00,12.0,meteohub,2013-09-19 22:37:00,
2013-09-19 18:42:00,66.4,57.0,30.06,SSW,192,0.0,1.0,72,0.00,,,0.00,9.0,meteohub,2013-09-19 22:42:00,
2013-09-19 18:47:00,65.5,56.3,30.06,SSW,192,0.0,0.0,72,0.00,,,0.00,7.0,meteohub,2013-09-19 22:47:00,
2013-09-19 18:52:00,64.6,56.1,30.06,SSW,192,0.0,0.0,74,0.00,,,0.00,5.0,meteohub,2013-09-19 22:52:00,
2013-09-19 18:57:00,63.9,56.1,30.06,SSW,192,0.0,0.0,76,0.00,,,0.00,0.0,meteohub,2013-09-19 22:57:00,
2013-09-19 19:02:00,63.1,55.4,30.07,SSW,192,0.0,0.0,76,0.00,,,0.00,0.0,meteohub,2013-09-19 23:02:00,
2013-09-19 19:07:00,63.0,55.9,30.06,SSW,192,0.0,0.0,78,0.00,,,0.00,0.0,meteohub,2013-09-19 23:07:00,
2013-09-19 19:12:00,62.8,55.4,30.06,SSW,192,0.0,0.0,77,0.00,,,0.00,0.0,meteohub,2013-09-19 23:12:00,
2013-09-19 19:17:00,62.2,55.2,30.07,SSW,192,0.0,0.0,78,0.00,,,0.00,0.0,meteohub,2013-09-19 23:17:00,
2013-09-19 19:22:00,61.9,55.2,30.07,SSW,192,0.0,0.0,79,0.00,,,0.00,0.0,meteohub,2013-09-19 23:22:00,
2013-09-19 19:27:00,61.5,54.9,30.07,SSW,192,0.0,0.0,79,0.00,,,0.00,0.0,meteohub,2013-09-19 23:27:00,
2013-09-19 19:32:00,61.2,54.9,30.06,SSW,192,0.0,0.0,80,0.00,,,0.00,0.0,meteohub,2013-09-19 23:32:00,
2013-09-19 19:37:00,60.6,54.7,30.07,SSW,192,0.0,0.0,81,0.00,,,0.00,0.0,meteohub,2013-09-19 23:37:00,
2013-09-19 19:42:00,60.6,55.0,30.07,SSW,192,0.0,0.0,82,0.00,,,0.00,0.0,meteohub,2013-09-19 23:42:00,
2013-09-19 19:47:00,60.6,55.4,30.07,SSW,192,0.0,0.0,83,0.00,,,0.00,0.0,meteohub,2013-09-19 23:47:00,
2013-09-19 19:52:00,60.1,54.9,30.07,SSW,192,0.0,0.0,83,0.00,,,0.00,0.0,meteohub,2013-09-19 23:52:00,
2013-09-19 19:57:00,59.7,54.9,30.07,SSW,192,0.0,0.0,84,0.00,,,0.00,0.0,meteohub,2013-09-19 23:57:00,
2013-09-19 20:02:00,59.4,54.9,30.07,SSW,192,0.0,0.0,85,0.00,,,0.00,0.0,meteohub,2013-09-20 00:02:00,
2013-09-19 20:07:00,58.6,54.5,30.08,SSW,192,0.0,0.0,86,0.00,,,0.00,0.0,meteohub,2013-09-20 00:07:00,
2013-09-19 20:12:00,58.3,54.5,30.08,SSW,192,0.0,0.0,87,0.00,,,0.00,0.0,meteohub,2013-09-20 00:12:00,
2013-09-19 20:17:00,57.9,54.3,30.08,SSW,192,0.0,0.0,88,0.00,,,0.00,0.0,meteohub,2013-09-20 00:17:00,
2013-09-19 20:22:00,57.7,54.1,30.08,SSW,192,0.0,0.0,88,0.00,,,0.00,0.0,meteohub,2013-09-20 00:22:00,
2013-09-19 20:27:00,57.6,54.3,30.09,SSW,192,0.0,0.0,89,0.00,,,0.00,0.0,meteohub,2013-09-20 00:27:00,
2013-09-19 20:32:00,57.6,54.3,30.09,SSW,192,0.0,0.0,89,0.00,,,0.00,0.0,meteohub,2013-09-20 00:32:00,
2013-09-19 20:37:00,57.4,54.1,30.09,SSW,192,0.0,0.0,89,0.00,,,0.00,0.0,meteohub,2013-09-20 00:37:00,
2013-09-19 20:42:00,57.0,54.1,30.09,SSW,192,0.0,1.0,90,0.00,,,0.00,0.0,meteohub,2013-09-20 00:42:00,
2013-09-19 20:47:00,56.7,53.8,30.09,SSW,192,0.0,1.0,90,0.00,,,0.00,0.0,meteohub,2013-09-20 00:47:00,
2013-09-19 20:52:00,56.5,53.6,30.09,SSW,192,0.0,1.0,90,0.00,,,0.00,0.0,meteohub,2013-09-20 00:52:00,
2013-09-19 20:57:00,56.5,54.0,30.09,SSW,192,2.0,0.0,91,0.00,,,0.00,0.0,meteohub,2013-09-20 00:57:00,
2013-09-19 21:02:00,56.3,53.8,30.09,SSW,192,0.0,3.0,91,0.00,,,0.00,0.0,meteohub,2013-09-20 01:02:00,
2013-09-19 21:07:00,55.9,53.4,30.09,SSW,192,0.0,3.0,91,0.00,,,0.00,0.0,meteohub,2013-09-20 01:07:00,
2013-09-19 21:12:00,55.8,53.2,30.09,SSW,192,0.0,3.0,91,0.00,,,0.00,0.0,meteohub,2013-09-20 01:12:00,
2013-09-19 21:17:00,55.6,53.1,30.09,SSW,192,0.0,0.0,91,0.00,,,0.00,0.0,meteohub,2013-09-20 01:17:00,
2013-09-19 21:22:00,55.2,52.7,30.09,SSW,192,0.0,0.0,91,0.00,,,0.00,0.0,meteohub,2013-09-20 01:22:00,
2013-09-19 21:27:00,55.0,52.5,30.09,SSW,192,0.0,0.0,91,0.00,,,0.00,0.0,meteohub,2013-09-20 01:27:00,
2013-09-19 21:33:00,55.0,52.7,30.09,SSW,192,0.0,0.0,92,0.00,,,0.00,0.0,meteohub,2013-09-20 01:33:00,
2013-09-19 21:38:00,55.0,52.7,30.09,SSW,192,2.0,0.0,92,0.00,,,0.00,0.0,meteohub,2013-09-20 01:38:00,
2013-09-19 21:43:00,54.9,52.5,30.09,SSW,192,0.0,1.0,92,0.00,,,0.00,0.0,meteohub,2013-09-20 01:43:00,
2013-09-19 21:48:00,54.7,52.3,30.09,SSW,192,0.0,3.0,92,0.00,,,0.00,0.0,meteohub,2013-09-20 01:48:00,
2013-09-19 21:53:00,54.5,52.2,30.09,SSW,192,2.0,3.0,92,0.00,,,0.00,0.0,meteohub,2013-09-20 01:53:00,
2013-09-19 21:58:00,54.3,52.0,30.09,SSW,192,0.0,3.0,92,0.00,,,0.00,0.0,meteohub,2013-09-20 01:58:00,
2013-09-19 22:04:00,54.3,52.0,30.09,SSW,192,0.0,3.0,92,0.00,,,0.00,0.0,meteohub,2013-09-20 02:04:00,
2013-09-19 22:09:00,54.3,52.0,30.09,SSW,192,0.0,3.0,92,0.00,,,0.00,0.0,meteohub,2013-09-20 02:09:00,
2013-09-19 22:14:00,54.1,51.8,30.09,SSW,192,0.0,3.0,92,0.00,,,0.00,0.0,meteohub,2013-09-20 02:14:00,
2013-09-19 22:19:00,54.0,51.6,30.09,SSW,192,0.0,1.0,92,0.00,,,0.00,0.0,meteohub,2013-09-20 02:19:00,
2013-09-19 22:24:00,53.8,51.4,30.09,SSW,192,0.0,1.0,92,0.00,,,0.00,0.0,meteohub,2013-09-20 02:24:00,
2013-09-19 22:29:00,53.8,51.8,30.08,SSW,192,1.0,1.0,93,0.00,,,0.00,0.0,meteohub,2013-09-20 02:29:00,
2013-09-19 22:35:00,53.6,51.3,30.08,SSW,192,0.0,3.0,92,0.00,,,0.00,0.0,meteohub,2013-09-20 02:35:00,
2013-09-19 22:40:00,53.4,51.1,30.08,SSW,192,0.0,3.0,92,0.00,,,0.00,0.0,meteohub,2013-09-20 02:40:00,
2013-09-19 22:45:00,53.4,51.1,30.08,SSW,192,0.0,3.0,92,0.00,,,0.00,0.0,meteohub,2013-09-20 02:45:00,
2013-09-19 22:50:00,53.2,51.3,30.09,SSW,192,0.0,3.0,93,0.00,,,0.00,0.0,meteohub,2013-09-20 02:50:00,
2013-09-19 22:55:00,53.2,51.3,30.08,SSW,192,0.0,3.0,93,0.00,,,0.00,0.0,meteohub,2013-09-20 02:55:00,
2013-09-19 23:00:00,53.1,51.1,30.08,SSW,192,0.0,3.0,93,0.00,,,0.00,0.0,meteohub,2013-09-20 03:00:00,
2013-09-19 23:05:00,53.1,51.1,30.08,SSW,192,0.0,2.0,93,0.00,,,0.00,0.0,meteohub,2013-09-20 03:05:00,
2013-09-19 23:10:00,52.9,50.9,30.08,SSW,192,0.0,0.0,93,0.00,,,0.00,0.0,meteohub,2013-09-20 03:10:00,
2013-09-19 23:16:00,52.5,50.5,30.07,SSW,192,0.0,2.0,93,0.00,,,0.00,0.0,meteohub,2013-09-20 03:16:00,
2013-09-19 23:21:00,52.3,50.4,30.07,SSW,192,0.0,2.0,93,0.00,,,0.00,0.0,meteohub,2013-09-20 03:21:00,
2013-09-19 23:26:00,52.3,50.4,30.07,SSW,192,0.0,2.0,93,0.00,,,0.00,0.0,meteohub,2013-09-20 03:26:00,
2013-09-19 23:31:00,52.3,50.4,30.08,SSW,192,0.0,0.0,93,0.00,,,0.00,0.0,meteohub,2013-09-20 03:31:00,
2013-09-19 23:37:00,52.3,50.4,30.07,SSW,192,0.0,0.0,93,0.00,,,0.00,0.0,meteohub,2013-09-20 03:37:00,
2013-09-19 23:42:00,52.3,50.4,30.07,SSW,192,0.0,0.0,93,0.00,,,0.00,0.0,meteohub,2013-09-20 03:42:00,
2013-09-19 23:47:00,52.2,50.2,30.07,SSW,192,0.0,0.0,93,0.00,,,0.00,0.0,meteohub,2013-09-20 03:47:00,
2013-09-19 23:52:00,52.3,50.4,30.06,SSW,192,0.0,0.0,93,0.00,,,0.00,0.0,meteohub,2013-09-20 03:52:00,
2013-09-19 23:57:00,52.0,50.0,30.06,SSW,192,0.0,0.0,93,0.00,,,0.00,0.0,meteohub,2013-09-20 03:57:00,